Location: St. Louis
(38.6270°N, 90.1994°W)
Time: 04:31:25
(UTC-06:00)

Tiros 1 - Pass Details

Date: 02 December 2021
Orbit: 630 x 663 km, 48.4° (Epoch: 20 January)

Event Time Altitude Azimuth Distance (km) Brightness Sun altitude
Rises 18:24:06 0° 226° (SW) 2,906 11.5 -19.9°
Reaches altitude 10° 18:26:25 10° 224° (SW) 2,005 10.5 -20.4°
Maximum altitude 18:30:59 64° 143° (SE) 702 7.1 -21.2°
Enters shadow 18:31:39 56° 99° (E) 756 7.1 -21.4°
